Location: Gugi
(45.4667°N, 11.1000°E)
Time: 02:56:25
(UTC+00:00)

CORIOLIS - Pass Details

Date: 17 November 2019
Orbit: 819 x 838 km, 98.7° (Epoch: 11 December)

Event Time Altitude Azimuth Distance (km) Brightness Sun altitude
Rises 16:15:35 0° 149° (SSE) 3,359 7.2 -5.9°
Reaches altitude 10° 16:17:58 10° 145° (SE) 2,433 6.5 -6.3°
Maximum altitude 16:23:11 53° 70° (ENE) 1,015 4.3 -7.2°
Drops below altitude 10° 16:28:29 10° 354° (N) 2,460 6.5 -8.0°
Sets 16:30:54 0° 350° (N) 3,400 7.3 -8.4°
